GEFSSGP_850_meantemp_000.txt.gz
Temperature
20 20 20 19 16 16 18 20 21 22 23 24 25 24 23 23 22 21 23 23 23 23 22 22 22 21 20 20 19 19 18 17 17 17 17 17 17 17 17 17 17 17 17 17 17 17 17 17 17
20 20 20 19 16 17 19 20 21 23 24 25 25 24 23 23 23 23 23 23 23 23 22 22 22 21 20 20 19 19 18 17 17 17 17 17 17 17 17 17 17 17 16 17 17 17 17 17 17
20 20 19 16 15 17 20 21 22 23 24 25 24 24 22 21 22 22 22 23 23 22 22 22 22 21 21 20 20 19 19 18 17 17 17 17 17 17 17 17 17 17 16 17 16 17 17 17 17
19 20 19 17 17 19 20 21 21 22 24 25 24 21 21 21 21 21 21 21 21 22 22 21 21 21 21 21 20 20 19 19 18 18 17 17 17 17 17 17 16 16 16 16 16 16 17 17 17
19 19 15 16 17 19 20 21 22 22 22 24 23 21 20 21 21 21 21 21 21 21 21 21 21 21 21 21 21 20 20 19 19 18 17 17 17 17 17 16 16 16 16 16 16 16 16 16 16
19 17 16 16 18 19 20 23 22 22 22 23 23 21 20 20 21 22 22 21 21 21 21 21 21 20 20 21 21 20 20 19 19 19 18 17 17 17 17 17 16 16 16 16 16 16 16 16 16
18 14 16 17 17 19 21 23 22 21 22 23 23 20 20 20 20 21 21 21 21 20 20 20 20 19 19 19 20 20 20 19 19 19 19 18 18 18 17 17 17 16 16 16 16 16 16 16 16
20 15 17 17 18 20 22 23 23 23 22 22 22 19 19 19 20 20 21 21 20 20 19 19 19 18 18 18 19 19 19 19 19 19 19 19 18 18 18 17 17 16 16 16 16 16 16 16 15
19 15 15 18 19 20 21 21 22 23 22 20 19 19 18 18 19 20 20 20 19 18 18 18 18 18 17 17 17 18 18 19 19 19 19 19 19 18 18 17 16 16 16 16 16 15 15 15 15
18 14 16 19 21 21 21 21 21 22 20 19 18 18 18 18 18 19 19 19 18 18 18 18 17 17 17 17 16 16 17 17 17 17 18 18 19 18 18 17 16 16 16 16 16 15 15 15 15
17 16 17 19 21 21 20 21 21 20 19 19 18 18 17 17 18 17 17 17 16 16 17 17 17 17 17 16 16 15 15 15 15 16 17 17 18 18 18 17 16 16 15 15 15 15 15 15 15
17 18 19 20 21 21 20 21 20 20 20 20 19 18 17 17 17 16 16 16 16 16 16 17 16 17 17 16 15 14 14 14 14 15 15 15 16 15 15 16 15 15 15 15 15 15 15 15 15
17 18 20 20 21 21 21 20 20 19 20 19 18 18 17 17 17 16 15 15 16 16 16 15 15 15 15 15 15 14 14 13 13 13 13 14 14 14 14 13 14 14 14 14 14 14 14 14 14
18 19 19 20 20 20 19 19 19 19 19 18 18 17 17 17 16 16 15 15 15 16 16 16 16 16 15 15 14 14 14 13 13 12 12 12 13 13 13 13 13 14 14 14 14 14 14 14 14
19 17 17 18 19 19 19 18 17 20 18 18 17 17 17 16 16 16 15 15 15 15 15 15 15 15 15 15 15 14 14 13 13 12 12 12 12 12 12 13 13 14 14 14 14 14 14 13 13
17 17 16 18 18 18 18 16 17 19 18 17 17 17 17 16 16 16 15 15 15 14 14 15 15 15 15 15 15 14 14 13 12 12 12 11 11 11 12 12 12 13 13 13 13 13 14 14 14
15 15 16 17 18 17 17 16 17 18 17 17 17 17 16 16 15 15 15 15 14 14 14 14 14 14 14 13 13 13 13 13 12 12 11 11 11 11 11 12 12 12 13 13 13 13 13 13 13
16 15 16 16 18 17 16 15 15 16 16 16 17 17 16 15 15 15 15 14 14 14 14 14 13 13 13 12 12 12 12 12 12 11 11 11 11 11 11 11 12 12 12 12 12 12 12 12 12
16 15 14 15 16 16 15 15 15 15 15 14 15 16 16 15 15 14 14 14 14 14 14 13 13 12 12 12 11 11 11 12 11 11 11 11 11 11 11 11 11 11 11 11 11 11 11 11 12
16 15 14 15 15 15 15 14 15 15 14 15 15 16 16 15 14 14 14 14 14 14 13 13 13 12 11 11 11 11 11 11 11 11 11 11 11 11 11 11 11 11 11 11 11 11 11 11 11
15 15 14 13 13 14 14 14 14 15 14 15 15 16 16 15 14 13 14 14 14 13 13 12 12 11 10 10 10 10 10 11 11 11 11 11 11 11 10 10 10 10 11 11 11 11 10 10 10
14 14 14 13 13 12 14 12 15 15 14 12 13 14 16 14 14 13 13 13 13 13 12 11 11 11 10 10 10 10 9 9 10 10 10 10 10 10 10 10 10 10 10 10 10 10 9 9 9
14 13 13 13 12 11 11 12 12 14 14 12 11 13 15 14 13 13 13 13 13 12 11 11 11 10 10 10 9 9 9 9 9 9 9 9 9 9 9 9 9 9 9 9 9 9 9 9 8
14 13 12 10 10 11 11 11 11 12 14 12 11 13 14 14 13 13 13 13 13 12 11 10 10 10 10 9 9 9 9 9 9 9 9 9 9 9 9 9 9 9 9 9 9 9 9 8 8
12 12 10 11 11 12 11 11 11 12 11 10 10 13 14 13 13 13 13 13 12 11 11 10 10 10 10 9 9 9 9 9 9 9 9 9 8 8 8 8 8 8 8 8 8 8 8 8 8
12 11 11 10 10 11 12 10 11 11 10 10 12 13 13 12 13 13 13 12 11 11 11 10 10 10 10 9 9 9 8 8 8 8 8 8 8 8 8 8 8 8 8 8 8 8 8 8 8
11 11 11 10 9 8 10 11 12 11 11 10 10 11 12 12 12 12 12 12 12 11 11 10 10 10 9 9 8 8 8 8 8 8 8 8 8 7 7 7 7 7 7 8 8 8 8 8 8
10 11 6 9 8 7 9 9 11 12 12 11 11 11 12 12 12 12 12 12 12 11 11 10 10 9 9 8 8 8 8 8 7 7 7 7 7 7 7 7 7 7 7 7 7 7 7 7 7
10 9 9 8 8 9 9 10 11 12 11 10 10 12 13 13 13 12 12 12 12 11 10 10 9 9 9 8 7 7 7 7 7 7 7 7 7 7 7 6 6 6 7 7 7 7 7 7 7
9 9 8 7 8 7 8 10 12 10 10 10 10 12 12 12 12 11 11 12 11 11 10 9 9 9 9 8 7 7 6 6 6 6 6 6 6 6 5 5 6 6 6 6 6 6 7 6 6

GEFSSGP_850_meantemp_006.txt.gz
Temperature
18 19 19 18 15 13 16 17 18 20 21 22 22 22 20 21 21 22 22 22 22 22 22 22 22 21 21 20 20 19 19 18 17 17 17 17 16 16 17 17 16 16 16 17 16 16 17 16 17
18 19 19 18 14 15 16 17 19 20 22 22 22 22 21 21 21 21 22 22 22 21 21 22 22 21 21 21 20 20 19 19 18 17 17 17 16 16 16 17 17 17 16 16 16 16 16 16 17
18 19 18 14 15 15 19 20 19 20 22 22 21 21 21 21 21 21 21 22 21 21 21 21 21 21 21 21 20 20 19 19 18 17 17 17 16 16 16 17 17 17 17 16 16 16 16 16 17
18 18 17 14 17 16 17 19 20 19 22 22 21 20 20 20 20 21 21 21 21 21 21 20 20 20 20 20 20 20 19 19 18 18 17 17 16 16 16 16 16 16 17 17 16 16 16 16 16
18 18 14 14 16 16 16 18 20 20 21 21 21 19 19 20 20 21 21 21 21 21 21 20 20 20 19 19 20 20 19 19 18 17 17 17 16 16 16 16 16 16 16 16 16 16 16 16 17
18 14 13 14 15 16 16 19 20 20 20 21 20 18 19 19 20 21 21 21 21 21 21 20 19 19 18 18 18 19 19 19 18 17 17 16 16 16 16 16 16 16 16 16 16 16 16 16 16
17 12 14 15 15 16 18 20 20 20 20 20 20 18 19 19 20 20 21 21 21 21 21 20 19 19 18 18 17 17 18 18 18 17 17 17 16 16 15 15 16 16 16 16 16 16 16 16 16
18 13 15 14 16 17 19 20 21 20 20 20 20 18 19 19 20 20 20 20 20 20 20 20 19 18 18 17 17 17 17 17 17 17 17 16 16 16 16 16 16 15 15 15 16 16 15 15 15
18 13 14 15 17 18 19 20 21 21 21 21 21 21 20 20 19 19 19 19 19 19 19 19 18 18 18 17 17 16 16 16 16 17 17 17 16 17 17 16 16 15 15 15 15 15 15 15 15
17 13 15 16 17 19 19 20 21 20 19 19 20 20 20 19 18 18 18 19 19 18 18 18 18 17 17 17 16 16 15 15 15 15 16 16 16 16 16 17 16 16 15 15 15 15 15 15 15
16 14 15 16 18 19 19 20 21 19 18 20 21 21 19 18 18 18 18 18 18 18 17 18 18 17 17 17 16 15 15 15 15 14 14 14 15 16 16 17 16 16 16 15 15 15 15 15 15
15 14 16 17 19 19 19 19 19 19 20 21 21 20 19 18 18 18 17 17 17 17 17 17 17 17 16 16 16 15 14 14 14 14 13 14 14 14 15 16 16 16 15 14 14 14 14 14 14
15 15 17 18 18 18 18 18 18 19 21 20 20 19 18 18 17 17 16 16 16 16 16 16 16 16 15 15 14 14 14 13 13 13 12 12 12 13 13 13 14 14 14 13 13 13 14 14 14
16 16 16 17 18 17 17 16 17 19 20 19 19 19 18 18 17 17 16 16 15 15 16 16 16 16 15 15 14 14 13 13 12 12 12 12 12 12 12 12 12 12 13 13 13 13 13 13 13
16 15 15 16 16 17 17 16 16 19 19 18 18 18 17 17 16 16 16 16 15 15 15 15 15 15 15 15 15 14 14 13 12 12 11 11 11 11 11 11 12 12 12 12 13 13 13 13 13
15 14 15 15 15 17 17 15 16 19 18 17 18 17 17 17 16 16 15 15 15 15 15 15 15 15 15 15 14 14 13 13 12 11 11 11 11 11 11 11 11 11 12 12 12 13 13 12 12
14 14 15 14 15 16 16 14 14 18 17 16 17 17 17 16 16 15 15 15 15 15 15 15 14 14 14 14 14 13 12 12 11 11 11 11 11 11 11 11 11 11 11 12 12 12 12 12 12
15 14 14 13 14 14 14 13 14 17 16 15 16 16 16 16 16 15 15 14 14 14 14 14 14 14 14 13 13 12 11 11 11 11 11 11 10 10 11 11 11 11 11 11 11 12 12 12 12
14 14 13 12 13 14 13 13 14 15 14 13 14 15 16 16 16 15 14 14 14 14 14 14 14 13 13 12 12 11 11 11 10 10 10 10 10 11 11 11 10 10 10 11 11 11 11 11 12
14 14 12 12 13 13 11 11 12 11 12 14 14 14 15 15 15 14 14 13 13 13 13 13 13 13 12 12 11 10 10 10 10 10 10 10 10 10 10 10 10 10 10 10 10 11 11 11 11
14 13 13 12 11 10 10 11 12 13 13 14 14 15 15 14 14 14 13 13 13 13 13 13 13 12 12 11 10 10 10 10 10 10 10 10 10 9 9 9 9 9 9 9 9 10 10 10 10
12 13 12 11 10 9 10 10 10 10 10 11 13 14 15 15 14 12 12 12 12 13 13 13 12 12 11 10 10 10 9 9 9 9 9 9 9 9 9 9 9 9 9 9 9 9 9 9 9
13 12 11 10 10 8 8 8 9 9 12 12 10 13 15 15 15 13 12 12 12 12 12 12 12 11 11 10 10 9 9 9 9 9 9 9 8 8 8 8 8 8 8 8 8 8 8 8 8
11 11 10 8 7 9 10 8 9 9 12 10 9 12 14 14 15 14 12 12 12 12 12 12 12 11 10 10 9 9 9 9 8 8 8 8 8 8 8 8 8 8 8 8 8 8 8 8 8
10 10 9 9 9 9 9 9 9 10 10 10 8 10 11 12 13 13 13 12 12 12 12 12 11 11 10 9 9 9 9 8 8 8 8 8 8 8 8 8 7 7 7 7 7 7 7 7 7
10 10 10 9 8 7 8 8 9 9 9 9 9 8 9 9 11 12 12 11 12 12 12 11 11 11 10 10 9 9 8 8 8 8 8 8 8 7 7 7 7 7 7 7 7 7 7 7 7
11 9 9 8 6 6 6 6 7 9 7 6 6 7 7 8 9 10 10 10 11 11 11 11 11 11 10 10 9 9 8 8 7 7 7 7 7 7 7 7 7 7 7 7 7 7 7 7 7
10 8 6 7 7 7 6 6 7 7 5 4 5 5 6 7 8 9 9 9 10 11 11 11 11 10 10 10 9 9 8 7 7 7 7 7 7 6 6 6 6 6 6 6 6 6 6 6 6
9 9 8 6 5 5 5 7 7 5 3 3 3 5 6 6 6 6 7 8 9 10 10 10 10 10 10 9 9 8 8 7 7 6 6 6 6 6 6 5 5 5 5 5 5 5 6 6 6
9 8 6 5 5 4 4 7 6 4 4 4 4 5 5 4 4 4 5 6 7 8 9 9 9 9 9 8 8 7 7 6 6 6 6 6 6 5 5 4 4 4 4 4 4 4 4 4 5

GEFSSGP_850_meantemp_012.txt.gz
Temperature
18 19 19 18 22 24 24 24 24 24 25 25 24 24 26 26 25 24 22 22 22 22 22 22 21 21 21 20 20 19 19 18 18 17 17 16 16 16 16 16 16 17 17 17 17 17 17 17 17
18 19 18 20 23 24 24 24 24 25 24 23 23 24 25 25 22 21 21 22 22 22 22 22 21 21 21 21 20 19 19 18 18 17 16 16 16 16 16 16 16 16 16 16 16 16 16 16 16
18 19 19 22 23 24 24 24 24 24 23 23 24 23 24 24 21 21 22 22 22 21 22 21 21 21 21 21 20 19 19 18 18 16 16 16 16 16 16 16 16 16 16 16 16 16 16 16 16
18 19 21 23 23 23 23 24 23 24 24 23 24 24 23 22 22 21 22 22 21 21 21 21 21 21 20 20 20 19 19 18 18 16 16 16 16 16 16 16 16 16 16 16 16 16 16 16 16
18 20 22 22 23 23 24 23 22 24 25 24 24 25 24 21 22 22 21 21 21 20 21 21 21 20 20 19 19 19 19 18 18 16 15 16 16 16 16 16 16 16 16 16 16 16 16 16 16
19 21 22 23 23 23 24 22 22 24 24 23 23 24 24 21 22 22 21 21 21 21 21 21 20 20 19 19 19 18 18 18 17 16 16 15 16 16 15 15 15 15 16 16 16 16 16 16 16
20 21 22 22 22 23 23 22 23 24 24 24 23 24 24 21 21 21 21 21 21 21 21 20 20 20 19 18 18 18 18 18 17 17 16 15 15 15 15 15 15 15 15 16 16 16 16 16 16
19 21 21 21 21 22 23 22 22 22 24 21 21 24 24 21 22 21 21 20 21 21 21 20 20 19 18 18 17 17 17 17 17 16 16 16 15 15 15 14 14 15 15 15 16 16 16 16 15
18 21 21 22 21 22 22 22 22 20 21 21 21 22 22 22 21 21 20 20 20 20 20 20 19 19 18 17 16 17 16 16 16 15 15 16 15 14 14 14 15 15 15 16 16 15 15 15 15
19 21 22 21 22 22 22 21 21 22 22 23 22 21 22 21 20 19 19 19 19 19 19 19 19 19 18 17 16 16 15 15 15 14 14 13 13 13 13 14 16 16 16 16 16 16 15 15 15
19 20 21 20 20 20 20 21 21 22 23 23 23 22 20 20 19 19 18 18 18 19 19 19 19 18 18 17 16 16 15 15 14 14 14 13 13 13 13 14 15 16 16 16 16 16 15 14 14
20 20 20 20 19 19 20 20 21 21 22 22 20 20 19 19 19 18 18 18 18 18 18 18 18 18 18 17 16 16 15 14 14 14 14 13 13 13 13 13 13 14 14 15 15 15 14 14 14
20 20 19 19 18 18 18 19 20 20 20 20 19 19 19 19 18 18 17 17 17 17 17 17 17 17 17 17 16 16 15 14 14 14 14 13 13 12 12 12 12 12 12 13 14 14 14 14 14
19 19 19 19 19 18 18 20 19 21 19 19 19 18 18 18 17 17 16 16 16 16 16 16 16 16 17 16 16 15 15 14 14 13 13 13 12 12 12 12 12 12 12 12 12 13 13 13 14
18 19 21 20 19 19 19 21 21 21 19 19 19 19 17 16 16 16 16 15 15 15 15 16 16 16 16 16 16 15 15 15 14 13 13 12 12 12 11 11 12 12 12 12 12 12 13 13 13
19 19 20 21 19 19 19 21 22 20 18 18 18 17 16 16 15 15 15 14 14 14 15 15 15 15 15 15 15 14 14 14 13 13 12 12 11 11 11 11 11 11 11 12 12 12 13 13 13
20 20 20 20 19 19 19 20 21 19 17 17 16 16 15 15 15 14 14 14 14 14 14 14 14 14 15 15 15 14 13 13 12 12 11 11 11 11 11 11 11 11 11 12 12 12 12 12 13
20 20 19 19 19 18 18 19 20 17 16 16 15 15 14 14 13 13 13 13 13 12 13 13 13 14 14 14 14 14 13 12 11 11 11 11 11 11 11 11 11 11 11 11 12 12 12 12 12
18 18 18 19 18 17 18 18 18 16 15 15 14 13 13 13 13 12 12 12 12 12 12 12 13 13 13 13 13 13 12 12 11 10 10 10 10 10 10 10 10 10 11 11 11 11 11 11 12
17 18 19 18 17 16 17 17 17 15 14 13 12 12 12 12 12 12 12 12 12 11 11 11 12 12 13 13 13 13 12 11 10 10 10 10 10 10 10 10 10 10 10 10 10 10 10 11 11
18 17 17 17 17 16 15 18 16 15 13 12 11 11 11 10 11 11 11 11 11 11 10 11 11 12 12 12 12 12 11 10 10 10 10 10 10 10 10 10 9 9 9 9 9 9 9 9 10
17 16 15 15 16 17 15 17 18 14 13 12 10 10 10 9 9 9 9 10 10 11 11 10 10 11 11 12 12 11 10 10 10 9 9 9 9 9 9 9 9 9 9 9 9 9 9 9 9
15 15 15 14 15 15 15 15 18 14 12 11 10 9 9 9 8 8 8 8 8 9 10 9 9 10 10 11 11 10 10 10 9 9 9 9 9 9 9 9 8 8 8 8 8 8 8 8 8
14 15 16 13 14 15 15 15 17 13 11 10 10 9 9 8 8 8 7 7 7 7 7 8 8 9 9 9 10 10 10 10 9 9 9 8 8 8 8 8 8 8 8 8 8 8 8 8 8
15 15 16 16 16 16 14 14 15 10 9 9 9 9 8 8 8 7 7 6 6 6 6 6 7 7 8 8 9 9 9 9 9 9 8 8 8 8 8 8 8 8 8 8 8 7 7 7 7
13 14 14 14 15 16 15 14 14 10 9 9 9 9 8 7 7 7 6 6 6 5 5 5 6 6 7 7 8 8 9 9 9 9 9 8 8 8 8 8 7 7 7 7 7 7 7 7 7
13 13 12 12 13 13 14 14 12 10 10 10 9 9 8 7 6 6 6 5 5 5 4 4 4 5 6 7 7 8 8 8 8 8 8 8 8 7 7 7 7 7 7 7 7 7 7 7 7
12 12 12 12 12 13 14 15 14 10 9 10 9 8 7 6 6 5 5 5 4 4 3 3 3 4 5 6 6 6 7 7 7 8 7 7 7 7 7 6 6 6 6 6 6 6 6 6 6
11 11 11 12 11 11 11 13 10 9 9 9 8 7 7 6 5 5 5 5 4 3 2 2 2 2 3 4 4 5 5 5 6 6 6 6 6 5 5 5 5 5 5 5 5 4 4 5 5
10 10 10 10 11 11 10 11 10 10 9 8 7 7 6 6 5 5 5 5 4 3 2 1 1 1 0 1 2 2 3 3 4 4 4 4 4 4 4 4 4 4 3 3 3 3 3 3 3

GEFSSGP_850_meantemp_018.txt.gz
Temperature
19 19 19 20 19 20 22 26 27 26 27 27 26 27 26 25 24 22 22 21 21 21 22 22 22 21 21 20 20 19 19 19 18 18 17 17 16 16 16 16 16 16 16 16 16 16 16 16 16
20 19 20 20 20 21 24 26 27 26 26 26 26 26 27 26 25 23 22 22 22 21 21 21 21 21 21 21 20 20 19 19 18 18 18 17 17 16 16 16 16 16 16 16 16 16 16 16 16
20 20 20 20 21 23 24 25 25 26 26 26 27 26 26 25 24 23 22 22 22 21 21 21 21 21 21 21 20 20 20 19 19 18 18 17 17 16 16 16 16 16 16 16 16 16 16 16 16
19 20 21 21 22 25 25 25 25 26 26 26 26 27 25 25 24 23 22 22 22 21 21 21 20 20 20 20 20 20 20 19 19 18 18 17 17 17 16 16 16 16 16 16 16 16 16 16 16
19 20 21 21 23 26 26 26 26 25 26 27 26 26 25 24 23 22 22 22 22 21 21 20 20 20 20 20 20 19 19 19 19 19 18 17 16 16 16 16 16 16 16 16 16 16 16 16 16
20 22 20 21 24 26 27 26 26 26 26 27 26 26 24 23 23 23 22 21 21 21 20 20 20 20 20 20 19 19 19 19 18 18 18 17 16 16 16 16 16 16 16 16 16 16 16 16 16
20 20 20 22 23 25 25 25 25 24 24 25 25 25 24 22 22 22 22 21 21 20 20 19 19 19 19 19 18 18 18 18 18 18 18 17 17 16 16 16 16 16 16 16 16 16 16 16 16
20 20 21 23 24 24 25 25 25 24 24 24 24 24 23 22 22 21 21 21 20 20 19 19 19 19 18 18 18 17 17 17 17 17 17 17 17 17 16 16 16 16 16 16 16 16 16 15 16
19 19 20 22 22 23 24 24 24 24 24 24 25 24 23 23 22 21 21 20 20 20 19 19 19 18 18 17 17 16 16 16 16 16 16 16 16 16 16 15 15 15 16 16 16 16 16 16 16
20 19 22 23 23 22 23 23 23 24 24 24 24 24 22 22 21 21 21 21 21 20 19 18 18 18 18 17 17 16 15 15 15 15 15 15 15 15 14 14 14 14 15 15 16 16 16 16 16
22 21 22 23 23 22 22 22 23 23 22 23 23 22 22 21 21 21 21 21 21 19 19 18 17 17 17 17 16 16 16 15 15 15 15 15 14 14 14 14 14 14 14 15 16 17 17 17 16
22 22 23 23 22 22 21 22 22 22 22 22 21 21 21 21 21 21 21 21 20 19 18 17 16 16 16 16 16 16 16 15 15 15 15 15 14 14 14 14 14 14 14 14 14 15 16 16 16
22 22 23 23 22 22 22 21 22 22 22 21 21 20 19 19 19 19 20 19 19 18 17 16 16 15 15 15 15 15 15 15 15 15 15 14 14 14 14 14 13 13 13 13 13 13 14 15 15
22 21 22 22 22 22 21 21 22 21 21 20 19 17 16 16 17 17 18 18 18 18 17 16 16 15 15 15 15 15 15 15 15 14 14 14 14 14 14 13 13 13 13 13 13 13 13 14 14
21 20 21 22 22 21 20 19 20 20 19 18 17 16 15 14 14 15 16 16 17 16 16 16 15 15 14 14 14 15 15 15 15 14 14 14 14 13 13 13 13 13 13 12 12 12 13 13 14
21 20 20 21 22 21 20 19 19 19 18 17 16 15 14 13 13 13 13 14 15 15 15 15 14 14 14 14 14 14 14 14 14 14 14 14 13 13 13 12 12 12 12 12 12 12 12 13 13
21 20 21 21 21 21 20 19 18 18 17 16 15 14 13 12 11 11 12 12 13 13 13 13 13 13 13 13 13 13 13 13 13 13 13 13 13 13 12 12 12 12 12 12 12 12 12 12 13
18 19 20 20 20 19 19 18 17 17 16 14 13 13 12 11 10 10 10 11 11 12 12 12 12 12 12 12 12 12 13 13 13 13 13 12 12 12 12 12 12 12 12 12 12 12 12 12 12
19 19 19 20 20 19 18 18 16 15 14 13 12 12 11 11 10 9 9 9 10 10 11 11 12 12 12 12 12 12 12 12 12 12 12 12 12 11 11 11 11 11 11 11 11 11 11 11 11
19 18 19 19 19 18 17 17 15 13 13 12 12 11 10 10 10 9 9 8 8 8 8 8 9 10 10 10 11 11 11 11 11 11 12 12 11 11 11 11 11 11 11 11 11 10 10 10 11
18 17 16 16 17 18 17 16 13 13 12 12 11 10 10 10 9 9 8 8 8 7 7 7 7 7 8 8 9 9 10 10 10 11 11 11 11 10 10 10 10 10 10 10 10 10 10 10 10
16 17 16 16 15 15 17 15 12 12 11 11 11 10 10 9 9 9 8 8 7 7 6 6 6 6 7 7 7 8 8 9 9 10 10 11 10 10 9 9 9 10 10 9 9 9 9 9 9
16 16 15 15 15 14 15 15 14 12 11 10 10 10 10 9 9 8 8 7 7 7 6 6 6 6 6 6 6 7 7 8 8 9 10 10 10 10 9 9 9 9 9 9 9 9 9 9 9
16 16 16 16 15 14 16 15 13 11 10 10 10 10 9 9 8 8 8 7 7 6 6 6 6 5 5 5 5 5 6 7 7 8 9 9 10 9 9 9 8 8 8 8 8 8 8 8 8
15 14 14 15 14 15 16 16 11 10 10 10 10 10 9 8 8 8 7 7 7 6 6 6 5 5 5 4 4 4 4 5 6 7 8 9 9 9 9 8 8 8 8 8 8 8 7 7 7
14 14 12 12 13 14 15 13 8 11 11 11 10 9 8 8 7 7 7 6 6 6 5 5 5 5 4 3 3 3 3 3 5 6 7 8 8 8 8 8 7 7 7 7 7 7 7 7 7
13 13 14 12 12 12 14 8 10 11 10 10 9 8 8 7 7 6 6 5 5 5 4 4 4 4 3 2 2 1 1 2 3 4 6 6 7 7 6 6 6 6 6 6 6 6 6 6 6
14 13 12 12 11 11 12 13 9 10 8 8 8 7 7 6 6 5 5 4 4 3 3 3 3 3 2 2 1 0 0 0 1 2 3 4 5 5 5 5 4 5 5 5 5 5 6 6 6
12 13 13 12 11 10 10 11 10 8 7 7 7 6 6 5 5 4 4 3 2 2 1 1 1 1 1 1 0 -0 -1 -1 -1 0 1 2 3 3 4 3 3 3 3 4 4 4 4 5 5
12 12 11 9 10 9 8 9 10 8 7 7 6 6 5 4 4 3 2 1 1 0 0 0 0 0 -0 -0 -1 -1 -2 -2 -2 -1 -0 0 1 1 1 1 1 1 2 2 3 3 3 3 3

GEFSSGP_850_meantemp_024.txt.gz
Temperature
19 19 19 19 16 14 17 18 20 21 23 24 24 23 21 21 21 20 21 21 21 21 22 22 21 21 21 21 20 20 19 19 18 18 17 17 16 16 16 16 16 17 17 17 17 17 17 17 17
19 19 19 19 15 16 18 20 21 22 24 25 25 24 22 22 22 22 22 22 21 22 22 21 21 21 21 21 21 20 20 19 18 18 17 16 16 16 16 16 16 16 16 16 16 16 16 17 17
19 19 19 15 16 17 20 21 22 23 24 25 24 24 23 22 22 22 22 22 22 21 21 21 21 21 21 20 20 20 20 19 18 18 17 16 15 15 15 16 16 16 16 16 16 16 16 16 16
19 19 18 15 18 18 20 21 22 22 24 24 24 22 22 22 22 22 21 21 22 21 21 20 20 20 20 20 19 19 19 19 18 18 17 16 15 15 15 15 15 16 16 16 16 16 16 16 16
19 18 15 15 17 18 19 21 22 19 20 23 23 21 21 21 22 21 21 21 21 21 20 19 19 19 19 19 19 18 18 18 18 18 17 16 15 15 15 15 15 15 15 15 16 16 16 16 16
19 16 14 16 17 19 19 21 22 20 21 23 22 21 21 21 21 21 20 20 20 20 19 19 19 18 18 18 18 17 17 17 17 17 17 17 16 15 15 15 15 15 15 15 15 15 16 16 16
18 14 16 17 17 18 19 21 21 20 20 22 22 20 20 20 20 20 20 20 20 19 19 18 18 18 17 17 17 16 16 16 16 16 16 16 16 15 15 15 15 15 15 15 15 15 15 15 15
19 14 17 16 18 19 19 21 21 21 20 21 21 19 19 20 20 20 20 19 19 18 18 18 18 17 17 16 16 15 15 15 15 15 15 16 16 15 15 15 15 15 14 14 14 14 14 15 15
19 14 16 18 19 19 19 20 21 21 20 19 18 17 17 19 20 20 20 19 18 18 18 17 17 17 17 16 16 15 15 15 15 15 15 15 15 15 15 15 14 14 14 14 14 14 14 14 14
18 15 18 19 20 19 19 19 20 19 17 16 16 17 18 19 19 19 19 18 17 17 17 17 17 16 16 16 15 15 15 15 15 14 14 14 14 14 14 14 14 14 14 14 14 14 14 14 15
18 17 18 20 20 20 20 19 18 17 13 12 12 13 16 18 17 17 16 16 16 16 15 15 15 15 15 15 15 14 14 14 14 14 14 14 14 14 14 14 14 14 14 14 13 13 13 14 15
18 19 19 20 20 20 19 17 14 13 12 11 12 14 15 15 14 14 14 14 14 14 14 14 14 14 14 14 14 14 14 14 14 14 14 14 14 14 14 14 14 13 13 13 13 13 13 13 14
19 19 20 20 20 19 17 15 13 12 11 11 12 13 12 12 12 12 13 13 13 13 13 13 14 14 14 14 14 14 14 14 14 14 14 14 14 14 13 13 13 13 13 13 13 13 13 13 13
19 19 19 19 19 18 16 14 14 11 10 11 11 10 10 10 11 11 12 12 12 12 12 13 13 13 13 13 13 13 13 14 14 14 14 14 14 14 13 13 13 13 13 13 13 13 13 13 13
19 18 17 18 18 17 16 13 12 11 10 10 10 9 10 10 10 10 9 10 10 11 11 12 12 12 13 13 13 13 13 13 13 13 13 13 13 13 13 13 13 13 12 12 12 12 12 12 12
17 16 16 18 18 17 15 11 11 10 10 9 9 9 9 9 9 9 9 9 9 9 10 10 11 11 12 12 12 12 12 12 13 13 13 13 13 13 13 13 13 13 12 12 12 12 12 12 12
14 15 16 17 16 16 13 11 10 10 9 9 9 9 9 8 8 8 8 8 8 8 8 8 9 9 10 10 11 12 12 12 12 12 12 12 12 12 12 12 12 12 12 12 12 12 12 12 12
15 15 15 16 15 14 11 9 9 9 9 8 9 9 8 8 8 8 7 7 7 7 7 7 7 7 7 8 9 9 10 11 11 11 11 11 11 11 11 11 11 12 12 11 11 11 11 11 11
16 15 15 15 15 13 11 9 8 9 8 8 8 8 8 8 8 7 7 7 7 6 6 6 6 6 6 6 6 7 7 7 8 9 10 10 10 10 10 10 10 11 11 11 11 11 11 11 11
15 15 14 14 14 12 9 8 8 8 8 8 8 8 7 7 7 7 6 6 6 6 5 5 5 5 5 4 4 4 5 5 6 7 8 8 9 9 9 10 10 10 10 10 10 10 11 11 11
14 14 14 13 12 11 9 8 8 8 8 8 7 7 7 6 6 6 5 5 5 5 4 4 4 4 4 4 3 3 4 4 4 5 6 7 8 8 9 9 9 10 10 10 10 10 10 10 10
12 14 13 13 11 10 10 8 7 7 6 6 6 6 6 5 5 5 4 4 4 3 3 3 3 3 3 3 3 3 3 3 3 3 4 5 6 7 8 8 9 9 9 9 9 9 10 10 9
12 12 11 11 10 10 10 8 6 7 6 5 5 5 5 4 4 4 3 3 3 3 2 2 2 2 2 2 2 2 2 2 2 2 3 4 5 6 6 7 8 8 9 9 9 9 9 9 9
11 10 11 9 9 11 12 8 5 5 5 4 4 4 4 4 3 3 2 2 2 2 1 1 1 1 1 1 1 1 1 1 1 2 2 2 3 4 5 6 7 7 8 8 8 8 8 9 9
9 9 9 10 9 10 9 6 5 5 4 4 4 4 3 3 2 2 1 1 1 1 0 -0 -0 -0 -0 -0 -0 -0 -0 0 0 0 0 1 1 2 3 4 5 6 6 7 7 8 8 8 8
11 10 9 9 8 8 7 5 4 4 5 4 4 3 2 2 2 1 0 0 -0 -0 -1 -1 -1 -1 -1 -1 -1 -1 -1 -1 -0 -0 -1 -1 -1 0 1 2 3 4 5 6 6 6 7 7 7
11 10 10 8 7 7 6 5 4 4 3 3 3 2 2 1 1 -0 -1 -1 -1 -2 -2 -2 -2 -2 -2 -2 -2 -2 -1 -1 -1 -1 -1 -2 -2 -1 -1 0 1 2 3 4 5 5 6 6 6
11 10 7 8 8 7 7 5 3 2 2 2 2 2 1 0 -1 -1 -2 -2 -3 -3 -3 -3 -3 -3 -3 -3 -3 -3 -3 -2 -3 -3 -3 -3 -3 -2 -2 -1 -0 1 2 2 3 3 4 5 5
10 9 7 6 6 6 5 4 4 3 2 1 2 1 0 -1 -2 -2 -2 -3 -3 -4 -4 -5 -4 -5 -5 -5 -5 -4 -4 -4 -4 -4 -4 -4 -4 -3 -2 -2 -1 -0 0 1 2 2 3 3 3
10 8 7 6 5 4 3 3 3 3 3 2 1 0 -1 -2 -2 -3 -3 -4 -4 -5 -5 -6 -6 -6 -6 -6 -6 -6 -6 -5 -5 -5 -5 -5 -4 -4 -3 -2 -2 -1 -0 -0 0 1 1 2 2

GEFSSGP_850_meantemp_030.txt.gz
Temperature
19 19 19 20 16 14 17 17 17 18 20 21 20 20 19 19 19 20 20 21 21 21 20 20 20 19 19 19 18 18 18 18 17 17 17 16 16 16 16 16 16 16 16 16 16 16 16 16 16
19 19 19 19 14 15 17 16 18 19 20 21 21 20 19 19 19 20 20 20 20 20 20 19 19 19 19 18 18 18 18 17 17 17 16 16 16 15 15 15 16 16 16 16 16 16 16 16 16
19 19 20 14 15 15 17 17 17 18 20 21 20 20 19 18 19 19 19 20 19 19 19 18 18 18 18 18 18 17 17 17 17 16 16 16 15 15 15 15 15 15 15 16 16 16 16 16 16
19 20 19 15 15 16 16 16 16 17 20 20 20 19 18 16 17 18 19 19 19 18 18 18 17 17 17 17 17 17 16 16 16 16 16 16 15 15 15 15 15 15 15 15 15 15 16 16 16
20 20 14 14 16 16 15 16 17 16 17 17 19 18 17 16 17 18 18 18 18 17 17 17 17 17 16 16 16 16 16 16 16 16 15 15 15 15 15 15 15 15 15 15 15 15 15 15 15
20 15 13 15 16 16 16 17 17 15 15 15 16 17 16 15 17 17 17 17 17 16 16 16 16 16 16 16 16 15 15 15 15 15 15 15 15 14 14 14 14 15 15 15 15 15 15 15 15
18 13 14 16 16 16 17 18 16 15 13 12 14 15 15 14 15 15 16 17 16 16 16 16 16 15 15 15 15 15 15 15 14 14 14 14 14 14 14 14 14 14 14 15 15 15 15 15 15
18 13 15 15 16 17 17 17 15 13 12 10 11 9 9 10 13 14 16 16 15 15 15 15 15 15 15 14 14 14 14 14 14 14 14 14 14 14 14 14 14 14 14 14 14 14 14 14 15
19 13 15 17 17 17 16 15 14 12 10 9 7 7 7 9 12 15 15 14 14 13 13 13 14 14 14 14 14 13 13 13 13 13 14 14 14 14 14 14 14 14 14 14 14 14 14 14 14
18 14 17 18 17 16 13 11 11 10 8 8 7 8 9 11 12 13 12 12 12 12 12 12 13 13 13 13 13 13 13 13 13 13 13 13 13 13 13 13 13 13 13 13 13 14 13 13 13
17 16 17 17 17 16 13 9 9 9 7 6 6 7 9 10 10 10 9 9 10 10 11 11 12 12 12 13 13 13 13 13 13 13 13 13 13 13 13 13 13 13 13 13 13 13 13 13 13
17 16 16 16 16 14 11 10 8 7 7 7 7 7 8 8 8 8 8 8 9 10 10 10 11 11 12 12 12 12 12 13 13 12 12 13 13 13 13 13 13 13 13 13 13 13 13 13 13
16 15 13 12 12 10 9 8 8 7 7 7 7 8 7 7 7 7 7 8 8 9 9 9 10 10 11 11 11 11 12 12 12 12 12 12 12 12 13 13 13 13 13 13 13 12 12 12 12
15 15 14 13 12 11 9 8 8 7 7 7 7 7 6 6 6 7 7 7 7 7 8 8 9 9 10 10 10 10 11 11 11 12 12 12 12 12 12 13 13 13 13 12 12 12 12 12 12
16 13 13 13 13 11 10 7 7 7 7 7 6 6 6 6 6 6 6 6 6 6 7 7 8 8 8 9 9 9 10 10 11 11 11 11 12 12 12 12 12 12 12 12 12 12 12 12 12
14 13 13 13 12 12 10 5 7 7 7 6 6 6 6 5 5 5 5 5 5 6 6 6 7 7 7 7 7 7 8 8 9 9 10 10 11 11 11 11 11 12 12 12 12 12 12 12 12
12 13 14 13 10 9 7 5 6 6 6 5 5 5 5 5 5 5 5 5 5 5 5 5 6 6 6 6 6 6 6 6 6 7 7 8 9 9 9 10 10 11 11 11 11 11 11 11 11
14 14 13 12 9 7 6 5 5 5 5 4 4 5 5 4 4 4 4 4 4 4 4 4 4 4 4 5 5 5 5 4 4 4 5 5 6 6 7 8 8 9 9 10 10 10 11 11 11
14 13 12 10 9 6 5 5 5 5 4 3 4 4 4 4 4 4 4 4 4 4 4 3 3 3 3 3 3 3 3 2 3 3 3 3 4 4 5 5 6 7 8 8 9 9 10 10 10
13 13 12 10 9 6 5 4 3 4 3 3 3 3 3 3 3 3 3 3 2 2 2 2 2 1 1 0 0 0 0 1 1 1 2 2 3 3 3 3 4 5 6 7 8 8 9 9 9
12 13 12 10 7 6 5 5 3 3 3 3 3 3 3 2 2 2 1 1 1 1 1 0 0 -0 -1 -1 -1 -1 -1 -1 -0 0 1 1 2 2 2 3 3 3 4 5 6 7 8 8 9
12 12 11 10 8 6 6 4 3 2 2 2 2 2 2 2 1 1 0 -0 -0 -1 -1 -1 -1 -1 -2 -2 -2 -3 -3 -3 -3 -2 -1 0 1 1 1 2 2 2 3 3 4 6 6 7 8
11 10 10 9 8 6 6 4 3 2 2 1 2 2 2 1 1 0 -0 -1 -2 -2 -2 -2 -2 -2 -3 -3 -3 -4 -4 -4 -4 -4 -3 -2 -1 -0 0 0 1 1 2 2 3 4 5 6 6
9 9 9 7 7 8 7 5 3 1 2 1 1 2 1 1 0 -1 -1 -2 -3 -3 -3 -4 -4 -4 -4 -4 -4 -5 -5 -5 -5 -5 -4 -4 -4 -3 -2 -1 -1 -0 0 1 2 3 4 5 5
8 8 9 9 9 8 4 3 1 2 2 2 2 1 1 0 -1 -2 -2 -3 -4 -4 -4 -5 -5 -5 -5 -5 -6 -6 -6 -6 -6 -6 -6 -6 -5 -5 -4 -3 -2 -2 -1 -0 1 1 2 3 4
9 9 9 9 8 6 4 2 1 2 2 2 2 1 0 -1 -2 -2 -3 -4 -5 -5 -5 -6 -6 -6 -6 -6 -6 -7 -7 -7 -7 -7 -7 -6 -6 -6 -5 -4 -3 -3 -2 -1 -0 0 1 2 3
10 7 8 6 6 5 4 2 2 2 2 2 1 1 -0 -1 -2 -3 -4 -5 -5 -5 -6 -6 -7 -7 -7 -7 -7 -7 -8 -8 -7 -7 -7 -7 -6 -6 -6 -5 -4 -3 -3 -2 -1 -1 0 1 2
8 7 6 7 7 6 5 2 1 1 0 -0 0 0 -1 -2 -3 -4 -4 -5 -5 -6 -6 -7 -7 -8 -8 -8 -8 -9 -8 -8 -8 -7 -7 -7 -7 -6 -6 -5 -5 -4 -3 -3 -2 -1 -1 -0 1
8 7 5 4 5 5 4 4 1 1 1 -1 0 0 -1 -2 -3 -4 -5 -5 -6 -7 -7 -8 -8 -8 -9 -9 -9 -9 -9 -9 -8 -8 -8 -7 -7 -7 -6 -6 -6 -5 -4 -4 -3 -2 -2 -1 -0
7 6 5 6 5 3 2 2 2 1 1 1 0 -0 -2 -3 -4 -4 -5 -6 -7 -7 -8 -8 -9 -9 -9 -9 -9 -9 -9 -9 -9 -9 -8 -8 -8 -7 -7 -7 -6 -6 -5 -4 -4 -3 -2 -2 -1

GEFSSGP_850_meantemp_036.txt.gz
Temperature
19 20 20 20 24 24 23 22 23 23 23 21 21 21 20 19 19 17 13 13 14 15 14 15 15 15 15 15 15 16 16 16 16 16 16 15 15 15 15 16 16 16 16 16 16 16 16 16 16
19 20 20 22 25 23 22 22 22 21 21 21 20 20 18 15 13 12 11 12 13 14 14 14 15 15 15 15 15 15 15 15 16 16 16 16 15 15 15 15 15 15 15 15 16 16 16 16 16
20 20 21 24 23 22 21 21 21 20 19 20 19 16 14 11 10 9 10 11 13 14 14 14 14 14 14 14 14 14 14 14 15 15 15 15 15 15 15 15 15 15 15 15 15 15 16 16 16
20 21 23 24 21 20 20 20 20 21 19 17 19 15 11 8 8 8 9 11 13 14 14 14 14 14 14 14 14 14 14 14 14 14 14 14 15 15 15 15 15 15 15 15 15 15 15 15 15
21 23 23 22 21 20 19 18 18 19 17 15 17 14 10 8 8 8 9 11 13 13 13 13 14 14 14 14 14 14 14 14 14 14 14 14 14 14 14 14 14 15 15 15 15 15 15 15 15
21 24 23 21 20 20 19 16 17 15 14 12 14 14 10 8 8 8 9 10 12 12 13 13 13 13 14 14 14 14 14 14 14 14 14 14 14 14 14 14 14 14 14 14 15 15 15 15 15
22 23 22 21 20 19 18 14 13 14 12 10 11 13 10 8 8 8 9 10 11 12 12 12 12 12 12 13 13 13 13 13 13 13 14 14 14 14 14 14 14 14 14 14 14 14 14 14 14
20 23 21 21 20 18 16 13 10 10 10 9 9 10 9 7 8 8 9 10 11 11 11 11 12 12 12 12 12 12 12 13 13 13 13 13 13 13 13 13 13 14 14 14 14 14 14 14 14
20 22 21 20 20 16 14 13 10 9 9 8 8 7 7 7 8 9 10 10 10 10 10 11 11 11 12 12 12 12 12 12 13 13 13 13 13 13 13 13 13 13 13 13 14 14 14 14 14
21 21 19 18 18 14 12 12 11 10 10 9 8 7 7 7 8 8 8 8 8 9 9 10 10 11 11 11 11 12 12 12 12 12 12 12 12 12 13 13 13 13 13 13 13 13 13 13 13
19 18 17 15 13 12 11 10 10 10 9 8 7 7 7 7 7 7 7 7 7 8 9 9 10 10 10 10 11 11 11 11 12 12 12 12 12 12 12 12 13 13 13 13 13 13 13 13 13
16 13 15 14 12 12 11 10 8 8 7 6 6 6 6 6 6 6 6 6 7 8 8 9 9 9 10 10 10 10 10 10 11 11 11 11 12 12 12 12 12 12 12 13 13 13 13 13 13
16 12 11 10 10 9 9 8 8 7 6 6 6 6 5 5 5 5 5 5 6 7 8 8 8 8 9 9 9 9 9 9 9 9 9 10 10 10 11 11 11 12 12 12 12 12 12 12 12
15 13 12 11 10 10 9 9 8 6 6 6 6 5 5 5 4 5 5 5 5 6 6 7 7 7 7 7 7 7 6 6 6 6 6 7 7 8 9 9 10 10 11 11 11 11 12 12 12
15 15 14 13 12 10 10 9 8 6 7 7 6 6 5 4 4 4 3 3 4 4 5 5 5 6 5 5 5 4 4 3 3 3 3 3 4 5 5 6 7 8 9 10 10 10 11 11 11
18 18 17 13 12 11 13 9 7 6 7 7 6 6 5 4 4 3 2 3 3 3 3 3 3 4 3 3 3 2 2 1 1 1 1 1 2 2 3 4 4 5 6 7 8 8 9 10 10
19 19 17 14 12 12 12 8 7 6 7 6 6 6 5 5 4 3 2 2 2 2 2 2 2 2 2 2 1 0 -0 -0 -0 -0 -0 0 0 1 1 2 2 3 3 4 5 6 7 8 9
19 19 17 15 11 11 10 8 6 6 6 6 6 6 5 4 3 2 1 1 1 1 1 0 0 0 0 0 -0 -0 -1 -1 -1 -1 -1 -1 -1 -1 -0 -0 1 1 2 2 3 4 5 6 7
18 18 16 12 10 10 9 7 7 6 6 6 6 5 5 4 3 2 1 1 0 -0 -0 -1 -1 -1 -1 -1 -2 -2 -2 -2 -2 -2 -2 -2 -2 -2 -2 -2 -1 -0 0 1 1 2 3 4 5
17 17 14 11 10 9 8 7 7 6 5 5 5 5 4 3 3 2 1 -0 -1 -2 -2 -2 -2 -2 -3 -3 -3 -4 -4 -4 -4 -3 -3 -3 -3 -3 -3 -3 -3 -2 -2 -1 -0 0 1 2 3
16 17 15 13 9 9 8 7 6 6 5 5 5 4 4 3 2 1 0 -1 -2 -3 -3 -3 -3 -4 -4 -4 -4 -4 -4 -5 -5 -5 -4 -3 -4 -4 -4 -4 -4 -4 -3 -3 -2 -1 -0 0 1
16 14 13 12 11 11 10 13 8 6 6 6 5 4 4 3 2 0 -1 -2 -3 -4 -4 -4 -4 -5 -5 -5 -6 -6 -6 -6 -6 -6 -6 -5 -5 -5 -5 -5 -5 -5 -4 -4 -3 -2 -1 -0 0
14 12 12 12 13 12 11 11 11 6 6 6 5 4 3 2 1 -0 -1 -3 -4 -4 -5 -5 -5 -6 -6 -6 -7 -7 -7 -7 -7 -7 -7 -6 -6 -6 -6 -6 -6 -5 -5 -4 -4 -3 -2 -1 -0
12 12 12 12 13 14 13 12 12 7 6 6 5 4 3 2 1 -0 -2 -3 -4 -5 -6 -6 -6 -7 -7 -7 -7 -8 -8 -8 -8 -8 -8 -7 -7 -7 -7 -6 -6 -6 -6 -5 -4 -4 -3 -2 -1
14 16 17 17 16 16 11 11 10 6 5 5 4 3 3 2 0 -1 -2 -4 -5 -6 -7 -7 -7 -7 -8 -8 -8 -8 -8 -9 -9 -9 -8 -8 -8 -8 -7 -7 -7 -7 -6 -6 -5 -4 -3 -3 -2
13 15 16 15 16 16 11 11 8 6 4 4 3 3 2 1 -0 -2 -3 -4 -5 -6 -7 -8 -8 -8 -8 -9 -9 -9 -9 -9 -9 -9 -9 -9 -9 -9 -8 -8 -8 -7 -7 -6 -5 -5 -4 -3 -2
14 13 12 13 13 12 13 9 5 5 5 4 4 3 2 1 -1 -2 -4 -5 -6 -7 -8 -8 -9 -9 -9 -9 -9 -9 -10 -10 -10 -10 -10 -10 -9 -9 -9 -9 -8 -8 -7 -7 -6 -5 -5 -4 -3
12 12 12 13 13 14 15 11 9 5 5 5 4 3 1 0 -2 -3 -4 -5 -7 -7 -8 -8 -9 -9 -10 -10 -10 -10 -10 -10 -10 -10 -10 -10 -10 -10 -9 -9 -9 -8 -8 -7 -7 -6 -5 -5 -4
12 11 11 12 12 12 12 12 7 5 4 4 3 2 0 -1 -2 -3 -4 -6 -7 -8 -8 -9 -9 -10 -10 -10 -10 -11 -11 -11 -11 -11 -11 -11 -11 -10 -10 -10 -9 -9 -8 -8 -7 -7 -6 -6 -5
10 10 11 12 12 11 11 10 6 5 4 3 2 1 -0 -2 -3 -4 -5 -6 -7 -8 -9 -9 -10 -10 -10 -11 -11 -11 -11 -11 -11 -11 -12 -12 -11 -11 -11 -11 -10 -10 -9 -8 -8 -7 -6 -6 -6

GEFSSGP_850_meantemp_042.txt.gz
Temperature
21 21 21 21 21 21 21 21 22 22 21 19 18 16 14 13 13 11 10 11 11 12 13 13 13 14 14 14 14 14 15 15 15 15 15 15 15 15 15 15 15 15 15 15 15 15 15 16 16
21 21 21 22 22 20 20 21 20 21 21 19 17 15 13 12 11 11 10 11 11 11 12 13 13 13 14 14 14 14 14 15 15 15 15 15 15 15 15 15 15 15 15 15 15 15 15 15 15
22 21 21 22 21 20 20 20 20 20 19 18 15 12 11 11 10 10 10 11 11 11 11 12 13 13 13 14 14 14 14 14 14 14 14 14 14 14 14 14 14 14 15 14 15 15 15 15 15
21 21 23 21 18 18 19 19 21 20 18 17 15 12 10 10 10 10 10 10 10 10 10 11 12 12 13 13 13 13 13 14 14 14 14 14 14 14 14 14 14 14 14 14 14 14 15 15 15
22 24 21 19 18 17 17 18 17 17 17 16 14 12 10 10 10 10 10 10 10 10 10 11 11 12 12 12 12 13 13 13 13 13 13 13 14 14 14 14 14 14 14 14 14 14 14 14 15
23 25 21 19 18 17 16 16 16 16 15 15 14 12 10 10 10 10 10 9 10 10 10 11 11 12 12 12 12 12 12 12 12 13 13 13 13 13 13 13 13 14 14 14 14 14 14 14 14
24 22 21 19 18 17 17 15 14 13 13 12 14 13 11 10 10 10 9 9 9 10 10 11 11 11 11 11 11 12 12 12 12 12 12 12 12 12 12 13 13 13 13 13 13 14 14 14 14
24 23 21 20 19 17 15 14 12 12 11 11 12 11 10 10 10 10 9 9 9 9 10 10 10 11 11 11 11 11 11 11 11 11 12 12 12 12 12 12 12 12 12 13 13 13 13 13 14
24 21 19 19 18 16 16 14 12 11 11 10 10 10 10 9 9 9 8 8 9 9 9 10 10 10 10 10 10 10 10 10 10 10 11 11 11 12 11 12 12 12 12 12 12 12 13 13 13
22 18 17 17 17 15 15 14 14 12 11 10 10 9 9 8 8 8 7 7 7 8 8 8 9 9 9 9 9 9 8 8 8 8 8 9 9 10 10 11 11 11 12 12 12 12 12 12 13
19 17 16 16 15 15 14 14 13 12 10 10 9 9 8 8 7 7 7 6 6 6 7 7 7 8 8 8 8 7 6 6 6 5 5 6 7 7 8 9 9 10 10 11 11 12 12 12 12
17 17 16 15 15 14 13 12 10 10 9 9 9 8 8 7 6 6 6 5 5 6 6 6 6 6 6 6 6 5 4 4 3 3 3 3 4 5 5 6 6 7 7 8 9 10 11 11 12
15 14 13 13 13 12 12 11 10 9 9 9 8 8 7 7 6 5 5 5 5 5 5 5 5 4 4 4 4 3 2 2 2 2 2 2 2 2 3 4 4 4 4 6 7 8 9 10 11
15 14 13 13 12 12 11 11 10 9 9 9 8 8 7 6 6 5 4 4 4 4 4 3 3 3 3 3 2 1 1 1 1 1 0 0 1 1 1 2 2 2 3 4 4 5 6 7 9
15 14 14 14 13 12 12 11 10 10 10 10 9 8 7 6 6 5 4 3 3 3 2 2 2 2 2 2 1 1 0 -0 -0 -0 -1 -1 -1 -1 -1 -0 0 0 1 2 2 3 4 5 6
17 16 15 15 14 14 13 11 10 10 10 10 9 9 8 7 6 5 4 3 3 2 2 1 1 1 1 1 0 0 -1 -1 -1 -2 -2 -2 -2 -2 -2 -2 -2 -1 -1 -0 0 1 2 3 5
18 19 16 15 15 15 14 11 10 10 10 10 9 9 8 7 6 5 4 3 2 1 1 0 0 -0 -0 -0 -0 -1 -1 -2 -2 -3 -3 -3 -3 -3 -3 -3 -3 -3 -2 -2 -2 -1 -0 1 2
19 21 19 15 14 15 14 10 10 10 10 10 9 8 8 7 6 4 3 2 1 0 0 -0 -1 -1 -1 -1 -1 -2 -2 -3 -4 -4 -4 -4 -4 -4 -4 -4 -4 -4 -4 -3 -3 -3 -2 -1 -0
20 20 19 14 14 14 13 10 9 9 9 9 8 8 7 6 5 4 3 2 1 -0 -1 -1 -2 -2 -3 -3 -3 -3 -4 -4 -4 -4 -5 -5 -5 -5 -5 -5 -5 -5 -5 -5 -4 -4 -3 -3 -2
20 19 18 14 13 13 12 11 10 9 9 8 7 7 7 6 5 4 3 2 0 -1 -2 -2 -3 -4 -4 -4 -5 -5 -5 -5 -5 -5 -6 -6 -6 -6 -6 -6 -6 -6 -6 -5 -5 -5 -4 -3 -3
19 18 16 16 13 12 12 11 9 9 8 7 7 7 6 5 4 4 2 1 -0 -2 -2 -3 -4 -5 -5 -5 -6 -6 -6 -6 -6 -6 -6 -6 -6 -6 -6 -7 -7 -6 -6 -6 -6 -5 -5 -4 -3
18 15 15 15 13 12 11 11 8 8 8 8 8 7 6 5 4 3 2 0 -1 -2 -3 -4 -5 -5 -6 -6 -6 -7 -7 -7 -7 -7 -7 -7 -7 -7 -7 -7 -7 -7 -7 -6 -6 -6 -5 -5 -4
16 15 14 14 14 13 12 11 9 8 8 8 8 7 6 5 4 3 1 -0 -1 -3 -4 -4 -5 -6 -6 -7 -7 -7 -8 -8 -8 -8 -8 -8 -8 -8 -8 -8 -8 -8 -8 -7 -7 -7 -6 -5 -5
15 15 14 14 13 13 15 12 9 8 8 7 7 6 5 4 3 2 1 -1 -2 -3 -4 -5 -6 -6 -7 -7 -7 -8 -8 -8 -8 -8 -8 -8 -8 -8 -9 -9 -9 -9 -8 -8 -8 -7 -7 -6 -5
16 15 15 14 13 14 15 13 8 7 7 6 6 6 5 4 2 1 -0 -2 -3 -4 -5 -5 -6 -6 -7 -7 -8 -8 -8 -9 -9 -9 -9 -9 -9 -9 -9 -9 -9 -9 -9 -9 -8 -8 -7 -6 -6
16 15 13 13 13 14 13 11 6 7 7 6 6 6 4 3 2 0 -1 -2 -3 -4 -5 -6 -6 -7 -7 -8 -8 -8 -9 -9 -9 -10 -10 -10 -10 -10 -10 -10 -10 -10 -10 -9 -9 -8 -8 -7 -6
15 14 14 12 13 13 13 7 7 7 7 7 6 5 4 2 1 -1 -2 -3 -4 -4 -5 -6 -7 -7 -7 -8 -8 -9 -9 -9 -10 -10 -10 -10 -10 -11 -11 -11 -11 -10 -10 -10 -9 -9 -8 -8 -7
14 13 13 13 12 11 13 11 7 6 6 6 6 4 3 2 0 -1 -2 -3 -4 -5 -5 -6 -7 -7 -8 -8 -8 -9 -9 -10 -10 -10 -11 -11 -11 -11 -11 -11 -11 -11 -11 -10 -10 -9 -9 -8 -7
14 14 14 13 12 11 10 9 7 6 6 5 5 4 2 1 -1 -2 -3 -4 -4 -5 -6 -6 -7 -7 -8 -8 -9 -9 -9 -10 -10 -11 -11 -11 -11 -11 -11 -12 -11 -11 -11 -11 -10 -10 -9 -8 -7
13 12 12 11 11 12 10 7 7 6 6 6 5 3 2 0 -1 -2 -3 -4 -5 -6 -6 -7 -7 -8 -8 -9 -9 -9 -10 -10 -11 -11 -11 -12 -12 -12 -12 -12 -12 -12 -12 -11 -11 -10 -9 -8 -8

GEFSSGP_850_meantemp_048.txt.gz
Temperature
21 21 21 22 18 15 13 13 14 13 11 11 11 10 9 9 9 8 9 9 9 10 10 10 11 11 12 12 12 13 13 13 13 13 13 13 13 13 13 14 14 14 14 14 14 14 15 15 15
21 22 21 20 15 13 13 12 13 13 11 11 10 10 10 10 9 9 9 9 9 10 10 10 11 11 11 11 12 12 12 12 12 13 13 13 13 13 13 13 13 13 14 14 14 14 14 14 15
21 21 19 13 11 11 13 13 12 12 12 11 9 9 9 10 9 8 8 9 9 10 10 10 11 11 11 11 11 11 12 12 12 12 12 12 12 12 12 12 13 13 13 13 13 14 14 14 14
21 21 17 13 11 11 11 11 13 13 12 10 10 9 9 9 8 8 8 9 9 10 10 10 10 11 11 11 11 11 11 11 11 11 12 12 12 12 12 12 12 12 12 13 13 13 13 13 14
22 19 13 11 11 11 10 11 11 11 10 10 9 9 8 8 8 8 9 9 9 9 10 10 10 10 10 10 10 10 10 10 10 11 11 11 11 11 11 11 12 12 12 12 12 12 13 13 13
22 16 12 11 12 11 11 11 11 10 10 10 9 9 8 7 8 8 8 9 9 9 9 10 10 10 10 10 10 10 9 9 9 9 10 10 10 10 10 11 11 11 11 11 11 12 12 12 13
20 13 12 12 12 12 12 11 10 9 9 9 10 9 8 7 7 8 8 8 8 9 9 9 9 9 9 9 9 9 8 8 8 8 8 8 9 9 9 9 10 10 10 10 11 11 11 12 12
21 14 13 13 12 11 11 10 10 9 9 9 9 8 7 6 7 8 8 8 8 8 8 8 8 8 8 8 7 7 7 6 6 6 6 6 6 7 7 7 8 8 8 9 10 10 11 11 12
20 12 12 13 12 11 11 10 9 9 8 8 7 7 6 7 7 8 8 8 8 7 7 7 7 7 6 6 6 6 5 5 4 4 4 4 5 5 5 5 6 6 7 7 8 9 10 10 11
16 11 12 12 12 11 11 10 9 8 7 7 6 7 7 8 8 8 7 7 6 6 6 6 5 5 5 5 4 4 4 3 3 2 2 2 3 3 3 4 4 4 5 6 6 7 8 9 10
14 11 12 12 12 11 10 9 9 8 7 7 6 7 7 7 7 7 6 6 5 5 4 4 4 4 3 3 3 2 2 2 1 1 0 1 1 1 2 2 3 3 3 4 5 6 6 7 8
12 12 12 12 12 11 10 9 8 8 7 7 7 7 7 7 6 6 5 5 5 4 3 3 2 2 2 2 2 1 1 0 -0 -1 -1 -1 -1 -0 0 1 1 1 1 2 3 3 4 5 6
10 11 11 12 12 10 10 8 8 7 7 7 7 7 6 6 6 5 5 5 4 3 2 2 2 1 1 1 1 0 0 -0 -1 -2 -2 -2 -2 -2 -2 -1 -1 -1 -0 0 1 2 2 3 4
11 10 10 11 10 9 8 8 8 7 7 7 7 6 6 6 5 5 5 4 4 3 2 1 1 1 1 1 0 -0 -1 -1 -2 -2 -3 -3 -3 -3 -3 -3 -3 -2 -2 -2 -1 -1 0 1 2
12 10 10 10 10 9 9 8 8 8 8 7 6 6 5 5 5 4 4 4 3 3 2 1 1 0 0 -0 -1 -1 -2 -2 -3 -3 -4 -4 -4 -4 -5 -4 -4 -4 -4 -3 -3 -2 -2 -0 1
12 10 10 10 10 10 9 7 8 8 8 7 6 5 5 4 4 4 4 3 3 2 2 1 0 -0 -0 -1 -1 -2 -2 -3 -3 -4 -4 -4 -5 -5 -5 -5 -6 -5 -5 -5 -4 -4 -4 -3 -1
13 12 12 11 10 10 9 7 8 8 7 6 6 5 4 4 4 3 3 3 3 2 1 0 -0 -1 -1 -1 -2 -2 -2 -3 -4 -4 -5 -5 -5 -6 -6 -6 -6 -6 -6 -6 -6 -6 -5 -5 -4
15 14 12 11 11 10 8 6 7 8 8 6 6 5 4 4 3 3 3 3 2 1 1 -0 -1 -1 -2 -2 -2 -2 -3 -3 -4 -5 -5 -6 -6 -6 -7 -7 -7 -7 -6 -6 -6 -6 -6 -6 -5
15 15 12 11 12 10 8 6 6 7 7 6 5 5 4 4 3 3 3 2 2 1 -0 -1 -2 -3 -3 -3 -3 -3 -4 -4 -5 -5 -6 -6 -6 -7 -7 -8 -7 -7 -7 -7 -7 -7 -7 -6 -6
16 14 12 11 12 10 7 7 6 7 7 6 6 5 4 4 3 3 2 2 1 -0 -2 -2 -3 -3 -4 -4 -4 -5 -5 -5 -6 -6 -6 -7 -7 -8 -8 -8 -8 -8 -8 -8 -8 -8 -8 -7 -7
14 14 13 12 11 9 8 7 6 6 6 6 5 5 4 4 3 2 2 1 -0 -1 -2 -3 -3 -4 -4 -5 -5 -5 -5 -5 -5 -6 -7 -7 -8 -8 -9 -9 -9 -9 -9 -9 -9 -9 -9 -8 -7
14 14 13 12 10 9 9 7 5 5 5 5 4 4 4 3 2 2 1 -0 -1 -2 -3 -3 -4 -4 -5 -5 -6 -6 -6 -7 -7 -8 -8 -8 -8 -9 -9 -9 -9 -9 -9 -9 -9 -9 -9 -9 -8
14 13 13 12 11 10 8 8 6 4 4 4 4 3 3 2 2 1 0 -1 -1 -2 -3 -4 -4 -4 -5 -6 -6 -7 -7 -8 -8 -8 -8 -9 -9 -9 -10 -10 -10 -10 -10 -10 -10 -10 -9 -9 -9
13 12 12 9 9 10 9 7 7 3 4 3 3 3 2 2 1 1 -0 -1 -2 -3 -3 -4 -4 -5 -6 -6 -7 -7 -8 -8 -8 -9 -9 -10 -10 -10 -10 -11 -11 -11 -11 -10 -10 -10 -10 -9 -9
11 11 10 11 10 10 9 7 6 4 4 4 3 2 2 1 1 0 -0 -2 -3 -3 -4 -4 -5 -5 -6 -7 -7 -8 -8 -9 -9 -10 -10 -11 -11 -11 -11 -11 -11 -11 -11 -11 -11 -11 -10 -10 -9
12 12 11 11 10 9 9 8 4 4 5 4 3 2 2 1 0 -0 -2 -3 -3 -4 -4 -5 -5 -6 -6 -7 -7 -8 -9 -9 -10 -10 -11 -11 -12 -12 -12 -12 -12 -12 -12 -12 -11 -11 -11 -10 -10
13 10 11 9 9 8 8 6 4 4 3 3 2 2 1 0 -0 -1 -2 -3 -4 -4 -5 -5 -6 -6 -7 -7 -8 -8 -9 -10 -10 -11 -11 -11 -12 -12 -12 -12 -12 -12 -12 -12 -12 -11 -11 -10 -10
12 10 8 9 10 9 8 7 5 3 3 2 1 1 0 -0 -1 -2 -3 -4 -4 -5 -5 -6 -6 -7 -7 -8 -8 -9 -10 -10 -11 -11 -12 -12 -12 -12 -13 -13 -13 -13 -13 -12 -12 -12 -11 -11 -10
12 12 10 8 7 8 7 8 5 3 2 1 1 0 -0 -1 -2 -3 -4 -4 -4 -5 -5 -6 -6 -7 -7 -8 -9 -10 -10 -11 -11 -12 -12 -13 -13 -13 -13 -13 -13 -13 -13 -13 -12 -12 -11 -11 -10
11 11 9 9 9 6 5 6 4 3 3 2 1 -0 -1 -2 -3 -3 -4 -4 -4 -5 -5 -6 -7 -7 -8 -9 -9 -10 -10 -11 -12 -12 -12 -13 -13 -13 -13 -13 -13 -13 -13 -13 -12 -12 -11 -11 -10